DW8935 Weather Reports


time (UTC)temp
C
wind
direction
speed
KPH
gust
KPH
rain 1hr
cm
rain 24hr
cm
rain mn
cm
humidity
%
barometer
mb
20260904194529 13 360 1.6 11.3 0.00 0.00 0.00 89 1005.8
20260904193030 13 351 6.4 12.9 0.00 0.00 0.00 88 1006.3
20260904191527 14 342 4.8 20.9 0.00 0.00 0.00 88 1006.4
20260904190027 14 340 14.5 30.6 0.00 0.00 0.00 89 1006.1
20260904184525 14 325 16.1 37.0 0.00 0.00 0.00 89 1006.6
20260904183025 14 313 12.9 22.5 0.00 0.00 0.00 89 1006.7
20260904181524 13 328 11.3 25.7 0.00 0.00 0.00 90 1005.7
20260904180022 13 22 9.7 29.0 0.00 0.00 0.00 90 1005.7
20260904174520 14 360 1.6 11.3 0.00 0.00 0.00 90 1005.9
20260904173020 14 360 3.2 24.1 0.00 0.00 0.00 90 1006.5
20260904171517 13 340 3.2 19.3 0.00 0.00 0.00 90 1006.7
20260904170016 13 344 9.7 25.7 0.00 0.00 0.00 90 1007.3
20260904164514 13 5 11.3 35.4 0.00 0.00 0.00 89 1007.3
20260904163011 14 324 9.7 37.0 0.00 0.00 0.00 89 1007.9
20260904161508 14 40 6.4 22.5 0.00 0.00 0.00 88 1008.7
20260904160015 14 323 9.7 20.9 0.00 0.00 0.00 88 1009.1
20260904154505 13 313 9.7 19.3 0.00 0.00 0.00 88 1008.9
20260904153002 13 327 4.8 22.5 0.00 0.00 0.00 88 1009.6
20260904151501 13 309 4.8 12.9 0.00 0.00 0.00 88 1009.7
20260904150104 13 315 3.2 14.5 0.00 0.00 0.00 87 1009.8
20260904144601 14 335 9.7 19.3 0.00 0.00 0.00 86 1010.1
20260904143054 14 333 12.9 22.5 0.00 0.00 0.00 84 1010.4
20260904141554 15 313 11.3 20.9 0.00 0.00 0.00 81 1010.7
20260904140101 16 316 8.0 17.7 0.00 0.00 0.00 77 1010.8
20260904134550 16 322 4.8 17.7 0.00 0.00 0.00 74 1010.7
20260904133052 15 293 6.4 27.4 0.00 0.00 0.00 75 1010.8
20260904131547 15 319 6.4 17.7 0.00 0.00 0.00 77 1010.9
20260904130051 15 355 8.0 17.7 0.00 0.00 0.00 77 1010.9
20260904124550 15 28 11.3 24.1 0.00 0.00 0.00 75 1011.1
20260904123043 15 323 11.3 27.4 0.00 0.00 0.00 74 1011.4
20260904121540 15 318 8.0 27.4 0.00 0.00 0.00 73 1011.9
20260904120037 15 333 9.7 25.7 0.00 0.00 0.00 73 1012.3
20260904114538 15 329 9.7 22.5 0.00 0.00 0.00 74 1012.8
20260904113036 15 331 9.7 29.0 0.00 0.00 0.00 75 1012.8
20260904111539 15 311 8.0 19.3 0.00 0.00 0.00 73 1013.0
20260904110032 15 310 3.2 14.5 0.00 0.00 0.00 73 1013.3
20260904104535 14 337 1.6 12.9 0.00 0.00 0.00 73 1013.3
20260904103031 14 317 3.2 8.0 0.00 0.00 0.00 74 1013.4
20260904101530 13 287 0.0 8.0 0.00 0.00 0.00 73 1013.5
20260904100029 13 302 0.0 0.0 0.00 0.00 0.00 72 1013.7
20260904094529 13 302 0.0 4.8 0.00 0.00 0.00 69 1013.6
20260904093029 13 296 1.6 8.0 0.00 0.00 0.00 69 1013.7
20260904091528 13 319 0.0 8.0 0.00 0.00 0.00 68 1013.8
20260904090033 14 9 3.2 8.0 0.00 0.00 0.00 67 1013.8
20260904084526 14 360 1.6 9.7 0.00 0.00 0.00 66 1014.0
20260904083024 15 315 3.2 11.3 0.00 0.00 0.00 65 1014.1
20260904081523 15 333 6.4 14.5 0.00 0.00 0.00 64 1014.1
20260904080022 15 355 4.8 20.9 0.00 0.00 0.00 64 1014.3
20260904074532 15 326 6.4 16.1 0.00 0.00 0.00 63 1014.6
20260904073024 16 325 6.4 17.7 0.00 0.00 0.00 63 1014.5
20260904071520 16 319 8.0 16.1 0.00 0.00 0.00 62 1014.4
20260904070020 16 328 11.3 19.3 0.00 0.00 0.00 61 1014.4
20260904064519 16 5 11.3 25.7 0.00 0.00 0.00 61 1014.6
20260904063022 16 305 16.1 35.4 0.00 0.00 0.00 60 1014.8
20260904061525 16 326 12.9 22.5 0.00 0.00 0.00 59 1015.1
20260904060020 16 331 11.3 30.6 0.00 0.00 0.00 58 1015.2
20260904054516 17 305 12.9 24.1 0.00 0.00 0.00 58 1015.3
20260904053022 17 311 9.7 22.5 0.00 0.00 0.00 59 1015.5
20260904051526 16 331 11.3 24.1 0.00 0.00 0.00 59 1015.4
20260904050011 17 309 12.9 27.4 0.00 0.00 0.00 58 1015.7
20260904044510 17 296 11.3 19.3 0.00 0.00 0.00 58 1015.8
20260904043009 17 346 12.9 29.0 0.00 0.00 0.00 56 1015.8
20260904041510 17 321 12.9 29.0 0.00 0.00 0.00 55 1015.8
20260904040015 17 335 9.7 24.1 0.00 0.00 0.00 54 1015.8
20260904034506 17 341 12.9 27.4 0.00 0.00 0.00 53 1016.2
20260904033002 17 300 14.5 29.0 0.00 0.00 0.00 52 1016.3
20260904031600 17 308 11.3 25.7 0.00 0.00 0.00 53 1016.7
20260904030057 17 312 14.5 25.7 0.00 0.00 0.00 53 1016.9
20260904024555 16 292 11.3 27.4 0.00 0.00 0.00 52 1017.0
20260904021552 16 355 11.3 25.7 0.00 0.00 0.00 52 1017.4
20260904020051 17 275 8.0 24.1 0.00 0.00 0.00 51 1017.7
20260904014602 16 302 9.7 22.5 0.00 0.00 0.00 52 1017.9
20260904011543 16 323 14.5 25.7 0.00 0.00 0.00 52 1018.6
20260904010050 16 314 12.9 22.5 0.00 0.00 0.00 52 1019.0
20260904004538 15 251 12.9 30.6 0.00 0.00 0.00 53 1019.2
20260904001540 15 303 11.3 25.7 0.00 0.00 0.00 56 1019.4
20260904000043 14 292 9.7 24.1 0.00 0.00 0.00 57 1019.4
20260903234530 13 294 12.9 25.7 0.00 0.00 0.00 57 1020.0
20260903231526 13 266 11.3 20.9 0.00 0.00 0.00 60 1020.0
20260903230024 12 328 9.7 22.5 0.00 0.00 0.00 62 1020.1
20260903224518 12 308 6.4 16.1 0.00 0.00 0.00 65 1020.1
20260903221512 9 313 0.0 4.8 0.00 0.00 0.00 76 1019.6
20260903220011 8 323 3.2 11.3 0.00 0.00 0.00 77 1019.6
20260903214517 8 294 1.6 8.0 0.00 0.00 0.00 79 1019.6
20260903211508 7 337 0.0 6.4 0.00 0.00 0.00 79 1019.2
20260903210008 7 319 0.0 6.4 0.00 0.00 0.00 79 1019.0
20260903204506 7 327 0.0 6.4 0.00 0.00 0.00 79 1019.0
20260903201504 8 297 0.0 9.7 0.00 0.00 0.00 78 1018.6
20260903200005 8 306 1.6 8.0 0.00 0.00 0.00 78 1018.7